Regional Weather Roundup
Issued by NWS

Home | Current Version | Previous Version | Graphics & Text | Print | Product List | Glossary Off
Versions: 1 2 3 4 5 6 7 8 9 10 11 12 13 14 15 16 17 18 19 20 21 22 23 24 25 26 27 28 29 30 31 32 33 34 35 36 37 38 39 40 41 42 43 44 45 46 47 48 49 50

416
ASUS43 KMKX 030321
RWRWI

WISCONSIN REGIONAL WEATHER ROUNDUP
NATIONAL WEATHER SERVICE MILWAUKEE/SULLIVAN WI
1000 PM CDT MON MAY 02 2016

NOTE: "FAIR" INDICATES FEW OR NO CLOUDS BELOW 12,000 FEET WITH NO
SIGNIFICANT WEATHER AND/OR OBSTRUCTIONS TO VISIBILITY.

WIZ001-002-006>008-014>016-023>028-030400-
NORTHWEST WISCONSIN

CITY           SKY/WX    TMP DP  RH WIND       PRES   REMARKS
SUPERIOR ARPT  CLEAR     37  34  92 CALM      29.99S
ASHLAND        CLEAR     40  39  97 CALM      29.99S
HAYWARD        CLEAR     46  36  68 N3        29.99R
SIREN          CLEAR     49  35  58 CALM      29.99R
CUMBERLAND     CLEAR     52  32  46 SW5       29.99S
RICE LAKE      CLEAR     55  33  44 SW3       30.01S
CHETEK         CLEAR     49  36  61 CALM      30.00R
LADYSMITH      CLEAR     49  38  67 CALM      30.00S
EAU CLAIRE     CLEAR     52  37  56 S5        29.99F
MENOMONIE      CLEAR     50  32  49 CALM      30.00S
NEW RICHMOND   CLEAR     51  38  60 CALM      30.00F
OSCEOLA        CLEAR     50  36  57 CALM      30.02S
$$

WIZ003>005-009-010-017-018-030400-
NORTH CENTRAL WISCONSIN

CITY           SKY/WX    TMP DP  RH WIND       PRES   REMARKS
MANITOWISH WTR CLEAR     40  38  93 CALM      29.99S
ARBOR VITAE    CLEAR     44  34  67 CALM      30.00S
WOODRUFF       CLEAR     44  34  67 CALM      30.00S
RHINELANDER    CLEAR     43  30  60 CALM      29.99S
EAGLE RIVER    CLEAR     42  32  69 CALM      29.99S
LAND O LAKES   CLEAR     40  33  74 CALM      30.00F
PHILLIPS       MOCLDY    47  37  67 CALM      29.99S
TOMAHAWK       CLEAR     41  35  78 CALM      30.00R
MEDFORD        CLEAR     49  37  63 S3        29.99S
MERRILL        CLEAR     46  37  68 CALM      30.00S
$$

WIZ029-030-035-036-043>047-030400-
CENTRAL WISCONSIN

CITY           SKY/WX    TMP DP  RH WIND       PRES   REMARKS
WAUSAU         PTCLDY    54  38  54 CALM      29.98S
MOSINEE        CLOUDY    54  34  47 SW5       30.01S
MARSHFIELD     MOCLDY    51  34  52 W5        29.99F
STEVENS POINT  MOCLDY    47  35  61 CALM      30.00S
WAUPACA        MOCLDY    52  35  53 S3        30.01R
WAUTOMA        CLOUDY    49  37  63 CALM      30.02R
WISC RAPIDS    MOCLDY    47  35  63 CALM      30.01F
CAMP DOUGLAS   NOT AVBL
$$

WIZ011>013-019>022-031-037>040-048>050-030400-
NORTHEAST WISCONSIN

CITY           SKY/WX    TMP DP  RH WIND       PRES   REMARKS
ANTIGO         CLEAR     46  34  63 CALM      29.99S
SHAWANO        PTCLDY    56  36  47 S5        29.99S
OCONTO         PTCLDY    45  39  82 CALM      29.99S
STURGEON BAY   CLEAR     48  30  49 S3        30.02S
GREEN BAY      CLEAR     52  37  56 SW5       30.00S
MANITOWOC      CLEAR     46  35  65 MISG      30.01F
APPLETON       PTCLDY    52  32  46 S7        29.99S
CLINTONVILLE   PTCLDY    54  34  47 S7        30.00R
OSHKOSH        CLEAR     48  35  60 S5        30.00S
$$

WIZ032>034-041-042-053>061-030400-
SOUTHWEST WISCONSIN

CITY           SKY/WX    TMP DP  RH WIND       PRES   REMARKS
LA CROSSE      CLOUDY    57  42  57 SE3       30.02R
SPARTA         CLOUDY    50  40  69 CALM      30.03S
VIROQUA        CLOUDY    53  37  53 CALM      30.03S
BOSCOBEL       MOCLDY    51  41  68 CALM      30.03R
PRAIRIE DU CHI MOCLDY    50  42  74 CALM      30.03S
PLATTEVILLE    CLEAR     52  38  60 W3        30.02S
$$

WIZ056-057-062-063-064-067-068-030400-
SOUTH CENTRAL WISCONSIN

CITY           SKY/WX    TMP DP  RH WIND       PRES   REMARKS
REEDSBURG      CLOUDY    52  36  54 CALM      30.01R
BARABOO/DELLS  CLOUDY    53  35  49 CALM      30.01S
LONE ROCK      CLOUDY    52  44  74 CALM      30.02S
MINERAL POINT  PTCLDY    55  32  41 SW3       30.02S
MADISON        CLEAR     48  36  63 CALM      30.01S
MIDDLETON      CLEAR     46  40  80 CALM      30.02S
WATERTOWN      CLEAR     48  36  62 SE3       30.02S
MONROE         CLEAR     52  36  54 SW3       30.02S
JANESVILLE     NOT AVBL
$$

WIZ051-052-058>065-066-070>072-030400-
SOUTHEAST WISCONSIN

CITY           SKY/WX    TMP DP  RH WIND       PRES   REMARKS
MILWAUKEE      CLEAR     45  33  63 CALM      30.02F
WAUKESHA       CLEAR     43  32  65 CALM      30.03S
MILWAUKEE/TIMM CLEAR     45  32  61 CALM      30.03S
RACINE         CLEAR     42  34  73 W3        30.03F
BURLINGTON     CLEAR     41  34  75 CALM      30.02F
KENOSHA        CLEAR     40  35  83 CALM      30.02F
FOND DU LAC    CLEAR     48  37  65 S5        30.01S
SHEBOYGAN      CLEAR     42  35  76 CALM      30.01S
WEST BEND      CLEAR     45  32  61 CALM      30.02S
JUNEAU         CLEAR     49  36  61 SE6       30.03S
$$

LSZ147-162-030400-
LAKE SUPERIOR

STATION/POSITION TIME  TEMP    WIND        PRES    WAVE
                       AIR SEA DIR/SP/G            HT/PER
                 (UTC) (F)     (DEG/KT/KT) (MB)    (FT/S)
W MID LAKE BUOY  0250   39 37  220/  4/  4 1015.7F   0
DEVILS ISLAND    0300   49     140/ 10/ 11 1015.0F
SAXON HARBOR     0200   45     190/  2/  3 1014.9F
$$

LMZ867-665-643>646-030400-
LAKE MICHIGAN

STATION/POSITION TIME  TEMP    WIND        PRES    WAVE
                       AIR SEA DIR/SP/G            HT/PER
                 (UTC) (F)     (DEG/KT/KT) (MB)    (FT/S)
CHAMBERS ISLAND  0200   49     160/  2/  3 1015.9
N MID LAKE BUOY  0250   43 38  260/  6/  6 1015.9F   0
NORTHPORT PIER   0200   49     200/  2/  4 1015.9S
ALGOMA LAKESHORE 0200             CALM       N/A
KEWAUNEE LAKESHO 0200   50                 1015.4S
SHEBOYGAN LAKESH 0300   51     220/  4/  4 1016.9S
PORT WASHINGTON  0240   48      CALM  /  2 1017.3S
S MID LAKE BUOY  0250   43 41  350/  4/  6 1016.4R   1
KENOSHA   LAKESH 0300   49     330/  2/  2 1016.6F
$$

TC  - TEMPERATURE IN CELSIUS
VSB - VISIBILITY IN STATUTE MILES
WCI - WIND CHILL INDEX
HX  - HEAT INDEX





USA.gov is the U.S. government's official web portal to all federal, state and local government web resources and services.